Flag for Norway Weather past 2 weeks in Skien, Norway

52 °F

Partly sunny.

Feels Like: 51 °F
Forecast: 36 / 50 °F
Wind: 3 mph from West

Location: Torp

Current Time: Oct 10, 2015 at 3:24:21 PM

Latest Report: Oct 10, 2015 at 2:50 PM

Visibility: N/A

Pressure: 30.39 "Hg

Humidity: 77%

Dew point: 45 °F

Location of SkienLocation

Historic Weather in Skien — Graph


Skien temperature yesterday

Maximum temperature yesterday: 46 °F (at 11:20 AM)
Minimum temperature yesterday: 43 °F (at 12:20 AM)
Average temperature yesterday: 44 °F

Past Weeks' High & Low Weather Summary

High64 °F (Sep 30, 2:20 PM)100% (Sep 28, 2:50 AM)30.72 "Hg (Sep 28, 2:50 AM)
Low39 °F (Oct 4, 3:50 AM)39% (Sep 27, 3:50 PM)29.86 "Hg (Sep 25, 1:20 PM)
Average50 °F79%30.25 "Hg
* Reported Sep 25 1:20 PM — Oct 10 1:50 PM, Skien, Weather by CustomWeather, © 2015

Note: Actual official high and low records may vary slightly from our data, if they occured in-between our weather recording intervals... More about our weather records


Skien weather history for previous 24 hours

Time TempWeatherWind HumidityBarometerVisibility
1:50 PM
Sat, Oct 10
50 °FPartly sunny.6 mph82%30.39 "HgN/A
1:20 PM50 °FOvercast.5 mph82%30.39 "HgN/A
12:50 PM50 °FMore clouds than sun.2 mph82%30.39 "HgN/A
12:20 PM50 °FPartly sunny.2 mph88%30.39 "HgN/A
11:50 AM48 °FPartly sunny.2 mph94%30.39 "HgN/A
11:20 AM48 °FBroken clouds.1 mph94%30.39 "HgN/A
10:50 AM46 °FMore clouds than sun.2 mph93%30.39 "HgN/A
10:20 AM45 °FPartly sunny.2 mph100%30.39 "HgN/A
9:50 AM45 °FScattered showers. Mostly cloudy.3 mph100%30.39 "HgN/A
9:20 AM45 °FOvercast.3 mph100%30.39 "HgN/A
8:50 AM43 °FPartly sunny.5 mph100%30.39 "HgN/A
8:20 AM43 °FMostly cloudy.5 mph100%30.39 "HgN/A
7:50 AM43 °FOvercast.5 mph100%30.39 "HgN/A
7:20 AM43 °FMostly cloudy.6 mph100%30.39 "HgN/A
6:50 AM43 °FPartly cloudy.6 mph100%30.39 "HgN/A
6:20 AM43 °FPartly cloudy.5 mph100%30.39 "HgN/A
5:50 AM43 °FPassing clouds.5 mph100%30.39 "HgN/A
5:20 AM43 °FDrizzle. Mostly cloudy.5 mph100%30.39 "HgN/A
4:50 AM43 °FMostly cloudy.5 mph100%30.39 "HgN/A
4:20 AM43 °FDrizzle. Overcast.5 mph100%30.39 "HgN/A
3:50 AM43 °FDrizzle. Overcast.7 mph100%30.39 "HgN/A
3:20 AM43 °FOvercast.5 mph100%30.39 "HgN/A
2:50 AM43 °FDrizzle. Overcast.6 mph100%30.39 "HgN/A
2:20 AM43 °FOvercast.5 mph100%30.39 "HgN/A
1:50 AM43 °FOvercast.6 mph100%30.39 "HgN/A
1:20 AM43 °FDrizzle. Mostly cloudy.3 mph100%30.39 "HgN/A
12:50 AM43 °FLight rain. Mostly cloudy.5 mph100%30.39 "HgN/A
12:20 AM43 °FLight rain. Overcast.5 mph100%30.39 "HgN/A
11:50 PM
Fri, Oct 9
43 °FPassing clouds.5 mph100%30.39 "HgN/A
10:50 PM43 °FPassing clouds.3 mph100%30.39 "HgN/A
10:20 PM43 °FPassing clouds.3 mph100%30.39 "HgN/A
9:50 PM43 °FPartly cloudy.3 mph100%30.39 "HgN/A
9:20 PM43 °FPartly cloudy.3 mph100%30.39 "HgN/A
8:50 PM45 °FPartly cloudy.3 mph93%30.39 "HgN/A
8:20 PM45 °FPartly cloudy.3 mph93%30.39 "HgN/A
7:50 PM45 °FPassing clouds.3 mph93%30.36 "HgN/A
7:20 PM45 °FBroken clouds.3 mph93%30.36 "HgN/A
6:50 PM46 °FPartly sunny.3 mph82%30.36 "HgN/A
6:20 PM46 °FPartly sunny.2 mph82%30.36 "HgN/A
5:50 PM46 °FPartly sunny.3 mph82%30.36 "HgN/A
5:20 PM46 °FPartly sunny.3 mph82%30.36 "HgN/A
4:50 PM46 °FBroken clouds.3 mph82%30.36 "HgN/A
4:20 PM46 °FBroken clouds.3 mph82%30.36 "HgN/A
3:50 PM46 °FPartly sunny.3 mph82%30.36 "HgN/A
3:20 PM46 °FDrizzle. Partly sunny.2 mph82%30.36 "HgN/A
Weather by CustomWeather, © 2015

See weather overviewHow to use our weather pages